"startDT [UTC]","vpos","CH4 [ppm]","stdev(CH4) [ppm]","CO2 [ppm]","stdev(CO2) [ppm]","H2O_reported [%]","stdev(H2O_reported)","CavityPressure [torr]","CavityTemp [C]","OutletValve","CH4_dry [ppm]","CO2_dry [ppm]","DasTemp [C]","EtalonTemp [C]","WarmBoxTemp [C]","MPVPosition","T_ECpre [C]","T_EC1 [C]","T_EC2 [C]","p_inlet [hPa]","p_in [hPa]","p_out [hPa]","T_inlet [C]","RH_inlet [%]","dwpt_inlet [C]","T_vent [C]","RH_vent [%]","dwpt_vent [C]","flow_vent [l min-1]","flow_inlet [l min-1]","dwpt_sample [C]","T_room [C]"
2015-03-20 00:00:00,3.0,1.87955,0.01529,399.582,2.186,0.0580,0.0833,139.779,45.000,31111.42504,1.88290,400.052,32.062,45.068,45.000,0.00,0.09,-272.71,-272.76,-4,485,-2,21.8,7.2,-15.2,21.5,7.4,-15.1,5.73,1.94,-11.1,25.8
2015-03-20 00:01:00,3.0,1.87607,0.00030,397.197,0.059,0.0132,0.0013,139.996,45.000,30885.77647,1.87628,397.265,32.050,45.068,45.000,0.00,0.09,-272.71,-272.76,-3,485,-2,21.8,7.1,-15.4,21.5,7.4,-15.2,5.73,1.87,-11.1,25.8
2015-03-20 00:02:00,3.0,1.87618,0.00033,397.227,0.080,0.0125,0.0018,139.994,45.000,30829.69297,1.87643,397.281,32.053,45.068,45.000,0.00,0.09,-272.72,-272.77,-4,485,-2,21.8,6.9,-15.7,21.5,7.2,-15.5,5.73,1.87,-11.1,25.8
2015-03-20 00:03:00,3.0,1.87595,0.00029,397.505,0.061,0.0119,0.0023,139.996,45.000,30785.31372,1.87614,397.560,32.030,45.068,45.000,0.00,0.09,-272.71,-272.77,-4,485,-2,21.8,6.8,-15.9,21.5,7.0,-15.7,5.73,1.88,-11.1,25.8
2015-03-20 00:04:00,3.0,1.87599,0.00027,397.579,0.036,0.0101,0.0021,139.996,45.000,30751.53526,1.87619,397.627,32.041,45.068,45.000,0.00,0.09,-272.71,-272.76,-4,486,-2,21.7,6.8,-16.0,21.5,7.0,-15.7,5.73,1.91,-11.1,25.7
2015-03-20 00:05:00,3.0,1.87609,0.00033,397.598,0.035,0.0072,0.0028,139.998,45.000,30724.98086,1.87621,397.633,32.020,45.068,45.000,0.00,0.09,-272.71,-272.77,-4,486,-2,21.8,6.8,-16.0,21.5,7.0,-15.8,5.73,1.95,-11.1,25.7
2015-03-20 00:06:00,3.0,1.87613,0.00029,397.603,0.040,0.0059,0.0020,139.997,45.000,30701.98249,1.87625,397.630,32.003,45.068,45.000,0.00,0.09,-272.71,-272.77,-4,486,-2,21.8,6.7,-16.0,21.5,7.0,-15.9,5.73,1.96,-11.1,25.7
2015-03-20 00:07:00,3.0,1.87612,0.00040,397.627,0.024,0.0050,0.0014,140.002,45.000,30680.99807,1.87622,397.650,32.000,45.068,45.000,0.00,0.09,-272.70,-272.77,-4,486,-2,21.8,6.7,-16.1,21.5,6.9,-15.9,5.73,1.94,-11.1,25.7
2015-03-20 00:08:00,3.0,1.87642,0.00030,397.624,0.037,0.0042,0.0027,140.001,45.000,30664.95966,1.87648,397.646,31.996,45.068,45.000,0.00,0.09,-272.70,-272.77,-4,487,-2,21.8,6.7,-16.1,21.5,6.9,-16.0,5.73,1.90,-11.2,25.7
2015-03-20 00:09:00,3.0,1.87617,0.00039,397.609,0.042,0.0029,0.0015,140.000,45.000,30653.96594,1.87623,397.623,31.979,45.068,45.000,0.00,0.09,-272.71,-272.77,-4,487,-2,21.8,6.7,-16.1,21.5,6.9,-15.9,5.73,1.88,-11.2,25.8
2015-03-20 00:10:00,3.0,1.87627,0.00031,397.625,0.029,0.0019,0.0025,140.004,45.000,30645.53320,1.87630,397.633,31.955,45.068,45.000,0.00,0.09,-272.70,-272.77,-4,488,-2,21.8,6.8,-15.9,21.5,7.0,-15.8,5.73,1.87,-11.1,25.8
2015-03-20 00:11:00,3.0,1.87625,0.00028,397.643,0.043,0.0019,0.0016,140.000,45.000,30637.28160,1.87627,397.653,31.970,45.068,45.000,0.00,0.09,-272.70,-272.77,-4,488,-2,21.7,6.9,-15.8,21.5,7.1,-15.7,5.73,1.88,-11.1,25.8
2015-03-20 00:12:00,3.0,1.87630,0.00022,397.638,0.023,0.0024,0.0025,139.999,45.000,30630.24190,1.87634,397.648,31.975,45.068,45.000,0.00,0.09,-272.71,-272.77,-4,489,-2,21.8,7.2,-15.3,21.5,7.3,-15.3,5.73,1.91,-11.2,25.7
2015-03-20 00:13:00,3.0,1.87629,0.00031,397.654,0.031,0.0013,0.0022,139.999,45.000,30623.72253,1.87632,397.662,31.991,45.068,45.000,0.00,0.09,-272.71,-272.77,-3,489,-2,21.7,7.4,-14.9,21.5,7.6,-14.8,5.73,1.93,-11.2,25.7
2015-03-20 00:14:00,3.0,1.87622,0.00023,397.651,0.029,0.0011,0.0016,140.003,45.000,30622.16067,1.87622,397.655,31.957,45.068,45.000,0.00,0.09,-272.71,-272.77,-4,490,-2,21.7,7.6,-14.6,21.5,7.8,-14.4,5.73,1.95,-11.1,25.7
2015-03-20 00:15:00,3.0,1.87609,0.00042,397.654,0.038,0.0009,0.0018,139.999,45.000,30621.83899,1.87615,397.658,31.944,45.068,45.000,0.00,0.09,-272.71,-272.77,-4,491,-2,21.7,7.8,-14.3,21.5,8.0,-14.2,5.73,1.94,-11.2,25.7
2015-03-20 00:16:00,3.0,1.87632,0.00038,397.662,0.035,0.0010,0.0016,140.000,45.000,30618.52777,1.87629,397.666,31.938,45.068,45.000,0.00,0.09,-272.71,-272.77,-4,491,-2,21.7,7.8,-14.3,21.5,8.0,-14.1,5.73,1.91,-11.2,25.7
2015-03-20 00:17:00,3.0,1.87645,0.00029,397.644,0.041,0.0009,0.0013,139.998,45.000,30615.11604,1.87648,397.649,31.938,45.068,45.000,0.00,0.09,-272.70,-272.76,-4,491,-2,21.7,7.8,-14.3,21.5,8.0,-14.1,5.73,1.88,-11.2,25.7
2015-03-20 00:18:00,3.0,1.87649,0.00038,397.666,0.030,0.0013,0.0015,140.000,45.000,30614.09236,1.87649,397.673,31.942,45.068,45.000,0.00,0.09,-272.71,-272.77,-3,492,-2,21.7,7.8,-14.3,21.5,8.0,-14.2,5.73,1.87,-11.2,25.7
2015-03-20 00:19:00,3.0,1.87654,0.00027,397.671,0.020,0.0002,0.0020,140.001,45.000,30615.56785,1.87655,397.672,31.942,45.068,45.000,0.00,0.09,-272.71,-272.77,-4,492,-2,21.7,7.7,-14.4,21.5,8.0,-14.2,5.73,1.87,-11.2,25.6
2015-03-20 00:20:00,0.0,1.91891,0.01381,403.456,1.746,0.2245,0.0839,140.288,45.000,33608.94581,1.92069,404.349,31.942,45.068,45.000,0.00,0.09,-272.71,-272.76,-4,977,-2,21.7,7.6,-14.5,21.5,7.9,-14.3,5.73,1.88,-11.2,25.6
2015-03-20 00:21:00,0.0,1.92429,0.00030,404.178,0.032,0.2618,0.0014,140.005,45.000,33778.01060,1.92928,405.459,31.938,45.068,45.000,0.00,0.09,-272.70,-272.77,-5,977,-2,21.8,7.6,-14.6,21.5,7.8,-14.4,5.73,1.94,-11.2,25.6
2015-03-20 00:22:00,0.0,1.92405,0.00037,404.182,0.018,0.2623,0.0011,140.003,45.000,33837.70996,1.92908,405.465,31.919,45.068,45.000,0.00,0.09,-272.71,-272.77,-4,978,-2,21.7,7.5,-14.7,21.5,7.8,-14.5,5.73,1.96,-11.2,25.6
2015-03-20 00:23:00,0.0,1.92389,0.00027,404.176,0.027,0.2609,0.0012,140.006,45.000,33883.82686,1.92886,405.453,31.917,45.068,45.000,0.00,0.09,-272.71,-272.77,-4,977,-2,21.7,7.5,-14.8,21.5,7.7,-14.6,5.73,1.97,-11.2,25.6
2015-03-20 00:24:00,0.0,1.92377,0.00029,404.177,0.029,0.2612,0.0025,140.001,45.000,33920.54936,1.92874,405.457,31.936,45.068,45.000,0.00,0.09,-272.70,-272.76,-4,978,-2,21.7,7.5,-14.8,21.5,7.7,-14.6,5.73,1.97,-11.2,25.7
2015-03-20 00:25:00,0.0,1.92375,0.00036,404.176,0.032,0.2628,0.0021,140.002,45.000,33949.10536,1.92879,405.460,31.937,45.068,45.000,0.00,0.09,-272.71,-272.77,-4,977,-2,21.7,7.5,-14.7,21.5,7.7,-14.6,5.73,1.96,-11.2,25.8
2015-03-20 00:26:00,0.0,1.92353,0.00052,404.165,0.039,0.2651,0.0019,140.002,45.000,33973.50502,1.92858,405.462,31.942,45.068,45.000,0.00,0.09,-272.71,-272.77,-4,977,-2,21.7,7.6,-14.6,21.5,7.8,-14.5,5.73,1.95,-11.2,25.8
2015-03-20 00:27:00,0.0,1.92375,0.00033,404.169,0.029,0.2673,0.0015,140.003,45.000,33995.54060,1.92882,405.478,31.989,45.068,45.000,0.00,0.09,-272.71,-272.76,-4,978,-2,21.7,7.6,-14.5,21.5,7.9,-14.4,5.73,1.94,-11.2,25.8
2015-03-20 00:28:00,0.0,1.92371,0.00025,404.162,0.032,0.2693,0.0017,139.998,45.000,34010.11234,1.92884,405.480,32.020,45.068,45.000,0.00,0.09,-272.71,-272.77,-4,977,-2,21.7,7.7,-14.4,21.5,7.9,-14.3,5.73,1.93,-11.2,25.9
2015-03-20 00:29:00,0.0,1.92358,0.00031,404.162,0.033,0.2726,0.0017,139.999,45.000,34025.52187,1.92879,405.496,32.095,45.068,45.000,0.00,0.09,-272.72,-272.77,-4,977,-2,21.7,7.8,-14.3,21.5,8.0,-14.2,5.73,1.92,-11.2,25.9
2015-03-20 00:30:00,0.0,1.92383,0.00040,404.172,0.027,0.2717,0.0018,140.001,45.001,34041.19393,1.92901,405.502,32.183,45.068,45.000,0.00,0.09,-272.71,-272.76,-4,976,-2,21.7,7.8,-14.3,21.5,8.0,-14.2,5.73,1.91,-11.2,25.9
2015-03-20 00:31:00,0.0,1.92403,0.00022,404.166,0.031,0.2722,0.0018,139.999,45.001,34051.10956,1.92919,405.497,32.281,45.068,45.000,0.00,0.09,-272.71,-272.76,-4,975,-2,21.7,7.8,-14.3,21.5,8.0,-14.2,5.73,1.90,-11.2,25.9
2015-03-20 00:32:00,0.0,1.92390,0.00033,404.167,0.037,0.2742,0.0017,140.001,45.001,34063.21291,1.92914,405.510,32.373,45.068,45.000,0.00,0.09,-272.72,-272.77,-4,974,-2,21.7,7.8,-14.3,21.5,8.0,-14.1,5.73,1.94,-11.2,25.9
2015-03-20 00:33:00,0.0,1.92382,0.00046,404.138,0.024,0.2736,0.0012,139.999,45.001,34072.45239,1.92906,405.479,32.463,45.068,45.000,0.00,0.09,-272.71,-272.77,-4,974,-2,21.7,7.8,-14.2,21.5,8.1,-14.1,5.73,1.98,-11.2,25.9
2015-03-20 00:34:00,0.0,1.92379,0.00034,404.142,0.031,0.2758,0.0016,140.002,45.001,34080.11097,1.92906,405.491,32.539,45.068,44.999,0.00,0.09,-272.70,-272.77,-4,974,-2,21.7,7.9,-14.1,21.5,8.1,-14.0,5.73,1.99,-11.2,25.9
2015-03-20 00:35:00,0.0,1.92377,0.00044,404.160,0.032,0.2780,0.0018,140.001,45.001,34087.84935,1.92907,405.519,32.610,45.068,44.999,0.00,0.09,-272.71,-272.77,-3,973,-2,21.7,7.9,-14.1,21.5,8.1,-14.0,5.73,1.92,-11.2,26.0
2015-03-20 00:36:00,0.0,1.92354,0.00045,404.150,0.038,0.2790,0.0014,139.996,45.001,34095.76211,1.92885,405.517,32.640,45.068,44.999,0.00,0.09,-272.71,-272.78,-3,972,-2,21.7,8.0,-14.0,21.5,8.2,-13.9,5.73,1.88,-11.2,26.0
2015-03-20 00:37:00,0.0,1.92353,0.00032,404.134,0.040,0.2796,0.0014,140.003,45.001,34100.76140,1.92888,405.505,32.689,45.068,45.000,0.00,0.09,-272.71,-272.77,-3,972,-2,21.7,8.0,-14.0,21.5,8.2,-13.9,5.73,1.93,-11.2,26.0
2015-03-20 00:38:00,0.0,1.92354,0.00034,404.189,0.031,0.2748,0.0033,140.000,45.001,34104.89870,1.92876,405.534,32.744,45.068,45.000,0.00,0.09,-272.71,-272.76,-3,973,-2,21.7,7.8,-14.2,21.5,8.1,-14.0,5.73,2.00,-11.2,26.0
2015-03-20 00:39:00,0.0,1.92388,0.00049,404.218,0.033,0.2664,0.0033,139.997,45.001,34106.32813,1.92894,405.523,32.780,45.068,45.000,0.00,0.09,-272.72,-272.77,-3,972,-2,21.7,7.6,-14.6,21.5,7.9,-14.4,5.73,1.97,-11.2,25.9
2015-03-20 00:40:00,0.0,1.92425,0.00070,404.272,0.058,0.2609,0.0018,139.998,45.001,34108.30468,1.92916,405.545,32.822,45.068,45.000,0.00,0.09,-272.71,-272.77,-3,971,-2,21.7,7.5,-14.8,21.5,7.7,-14.6,5.73,1.87,-11.2,26.0
2015-03-20 00:41:00,0.0,1.92575,0.00030,404.353,0.034,0.2577,0.0026,140.002,45.001,34110.64085,1.93067,405.616,32.871,45.068,45.000,0.00,0.09,-272.71,-272.76,-2,971,-2,21.7,7.4,-15.0,21.5,7.6,-14.8,5.73,1.91,-11.2,26.0
2015-03-20 00:42:00,0.0,1.92547,0.00046,404.325,0.030,0.2533,0.0025,140.001,45.001,34111.94790,1.93032,405.566,32.899,45.068,45.000,0.00,0.09,-272.72,-272.77,-3,971,-2,21.7,7.2,-15.2,21.5,7.5,-15.0,5.73,2.01,-11.2,26.0
2015-03-20 00:43:00,0.0,1.92520,0.00034,404.340,0.031,0.2482,0.0026,139.997,45.001,34114.44908,1.92992,405.554,32.940,45.068,45.000,0.00,0.09,-272.72,-272.77,-3,970,-2,21.7,7.1,-15.5,21.5,7.3,-15.2,5.73,1.94,-11.1,26.0
2015-03-20 00:44:00,0.0,1.92523,0.00019,404.423,0.043,0.2422,0.0022,140.000,45.001,34116.82506,1.92985,405.607,32.984,45.068,45.000,0.00,0.09,-272.71,-272.76,-3,971,-2,21.8,6.9,-15.7,21.5,7.2,-15.5,5.73,1.85,-11.1,26.0
2015-03-20 00:45:00,0.0,1.92558,0.00043,404.473,0.053,0.2379,0.0018,139.996,45.001,34113.76043,1.93007,405.634,33.000,45.068,45.000,0.00,0.09,-272.71,-272.76,-3,970,-2,21.8,6.8,-16.0,21.5,7.0,-15.7,5.73,1.97,-11.1,26.0
2015-03-20 00:46:00,0.0,1.92664,0.00051,404.658,0.062,0.2351,0.0015,140.000,45.001,34113.36810,1.93108,405.806,33.015,45.068,45.000,0.00,0.09,-272.71,-272.77,-2,970,-2,21.8,6.7,-16.1,21.5,6.9,-15.9,5.73,2.00,-11.1,26.0
2015-03-20 00:47:00,0.0,1.92758,0.00033,404.805,0.051,0.2348,0.0019,139.998,45.001,34115.27039,1.93205,405.953,33.052,45.068,45.000,0.00,0.09,-272.71,-272.76,-2,969,-2,21.8,6.7,-16.1,21.5,6.9,-16.0,5.73,1.87,-11.1,26.0
2015-03-20 00:48:00,0.0,1.92737,0.00028,404.801,0.037,0.2350,0.0017,140.001,45.000,34117.38926,1.93186,405.952,33.065,45.068,45.000,0.00,0.09,-272.71,-272.77,-2,968,-2,21.8,6.7,-16.1,21.5,6.9,-15.9,5.73,1.90,-11.1,26.1
2015-03-20 00:49:00,0.0,1.92749,0.00042,404.804,0.030,0.2338,0.0019,140.004,45.001,34119.74082,1.93200,405.949,33.088,45.068,45.000,0.00,0.09,-272.72,-272.78,-3,969,-2,21.8,6.7,-16.1,21.5,6.9,-16.0,5.73,2.02,-11.1,26.1
2015-03-20 00:50:00,0.0,1.92757,0.00053,404.812,0.035,0.2348,0.0013,139.997,45.000,34116.07241,1.93199,405.963,33.120,45.068,45.000,0.00,0.09,-272.71,-272.77,-2,969,-2,21.8,6.7,-16.1,21.5,6.9,-16.0,5.73,1.91,-11.1,26.1
2015-03-20 00:51:00,0.0,1.92800,0.00041,404.808,0.042,0.2342,0.0017,140.001,45.000,34115.21628,1.93248,405.953,33.141,45.068,45.000,0.00,0.09,-272.71,-272.76,-2,969,-2,21.9,6.6,-16.2,21.5,6.9,-16.0,5.73,1.87,-11.1,26.0
2015-03-20 00:52:00,0.0,1.92750,0.00049,404.848,0.046,0.2325,0.0016,140.003,45.000,34117.11495,1.93194,405.985,33.170,45.068,45.000,0.00,0.09,-272.72,-272.77,-2,969,-2,21.9,6.6,-16.2,21.5,6.8,-16.0,5.73,2.00,-11.1,26.0
2015-03-20 00:53:00,0.0,1.92742,0.00037,404.866,0.039,0.2307,0.0015,140.001,45.000,34119.07720,1.93182,405.997,33.185,45.068,45.000,0.00,0.09,-272.71,-272.77,-3,969,-2,21.9,6.5,-16.3,21.6,6.8,-16.1,5.73,1.95,-11.1,26.1
2015-03-20 00:54:00,0.0,1.92762,0.00037,404.849,0.049,0.2297,0.0022,139.996,45.000,34116.75385,1.93199,405.972,33.172,45.068,45.000,0.00,0.09,-272.71,-272.77,-2,969,-2,21.9,6.5,-16.4,21.6,6.7,-16.2,5.73,1.85,-11.1,26.1
2015-03-20 00:55:00,0.0,1.92779,0.00037,404.847,0.037,0.2288,0.0021,140.002,45.000,34118.22929,1.93213,405.969,33.130,45.068,45.000,0.00,0.09,-272.71,-272.76,-2,969,-2,21.9,6.5,-16.4,21.6,6.7,-16.2,5.73,1.95,-11.1,26.1
2015-03-20 00:56:00,0.0,1.92807,0.00045,404.832,0.025,0.2278,0.0018,140.001,45.000,34118.87664,1.93243,405.948,33.125,45.068,45.000,0.00,0.09,-272.72,-272.76,-3,969,-2,21.9,6.4,-16.4,21.6,6.7,-16.2,5.73,2.00,-11.1,26.1
2015-03-20 00:57:00,0.0,1.92738,0.00060,404.900,0.051,0.2254,0.0015,140.001,45.000,34120.07804,1.93175,406.002,33.103,45.068,45.000,0.00,0.09,-272.71,-272.77,-3,970,-2,22.0,6.4,-16.5,21.6,6.6,-16.3,5.73,1.94,-11.1,26.1
2015-03-20 00:58:00,0.0,1.92593,0.00054,404.898,0.030,0.2250,0.0019,140.001,45.000,34125.48719,1.93025,406.001,33.045,45.068,45.000,0.00,0.09,-272.71,-272.76,-3,971,-2,22.0,6.3,-16.6,21.6,6.6,-16.4,5.73,1.91,-11.0,25.9
2015-03-20 00:59:00,0.0,1.92588,0.00036,404.860,0.041,0.2239,0.0014,140.002,45.000,34128.97944,1.93016,405.958,32.981,45.068,45.000,0.00,0.09,-272.71,-272.77,-3,973,-2,22.0,6.3,-16.6,21.7,6.5,-16.5,5.73,1.90,-11.0,25.9
2015-03-20 01:00:00,0.0,1.92578,0.00036,404.826,0.042,0.2306,0.0058,139.999,44.999,34130.43428,1.93015,405.953,32.913,45.068,45.000,0.00,0.09,-272.71,-272.77,-3,973,-2,22.0,6.5,-16.3,21.6,6.7,-16.3,5.73,1.91,-11.0,25.9
2015-03-20 01:01:00,0.0,1.92595,0.00037,404.849,0.043,0.2310,0.0025,140.000,44.999,34131.73221,1.93038,405.981,32.817,45.068,45.000,0.00,0.09,-272.70,-272.77,-4,974,-2,22.0,6.5,-16.3,21.7,6.8,-16.1,5.73,1.93,-11.0,25.8
2015-03-20 01:02:00,0.0,1.92545,0.00045,404.765,0.059,0.2240,0.0047,140.001,44.999,34133.40357,1.92971,405.863,32.711,45.068,45.001,0.00,0.09,-272.70,-272.77,-3,974,-2,22.0,6.3,-16.6,21.7,6.6,-16.4,5.73,1.93,-11.0,25.9
2015-03-20 01:03:00,0.0,1.92595,0.00034,404.757,0.043,0.2306,0.0060,140.000,44.999,34132.92800,1.93034,405.886,32.640,45.069,45.001,0.00,0.09,-272.71,-272.77,-4,975,-2,22.0,6.5,-16.3,21.6,6.7,-16.1,5.73,1.94,-11.0,25.9
2015-03-20 01:04:00,0.0,1.92646,0.00034,404.898,0.048,0.2167,0.0030,139.998,44.999,34133.50514,1.93058,405.957,32.588,45.069,45.001,0.00,0.09,-272.71,-272.77,-3,975,-2,22.0,6.1,-17.0,21.6,6.4,-16.7,5.73,1.94,-11.0,25.9
2015-03-20 01:05:00,0.0,1.92667,0.00054,404.825,0.109,0.2116,0.0014,140.003,44.999,34134.54144,1.93067,405.860,32.493,45.069,45.001,0.00,0.09,-272.71,-272.77,-4,976,-2,22.0,5.9,-17.4,21.6,6.2,-17.1,5.73,1.93,-11.0,25.8
2015-03-20 01:06:00,0.0,1.92675,0.00047,404.781,0.085,0.2120,0.0013,140.000,44.999,34133.37860,1.93080,405.820,32.373,45.069,45.000,0.00,0.30,-270.91,-272.30,-4,977,-2,22.0,5.9,-17.4,21.6,6.2,-17.2,5.43,2.12,-13.6,25.7
2015-03-20 01:07:00,0.0,1.92690,0.00048,404.757,0.077,0.2123,0.0013,139.999,44.999,34130.65693,1.93096,405.796,32.224,45.068,45.000,0.00,0.09,-272.71,-272.77,-4,978,-2,21.9,5.9,-17.4,21.6,6.2,-17.2,5.73,1.94,-11.1,25.7
2015-03-20 01:08:00,0.0,1.92685,0.00035,404.725,0.037,0.2109,0.0020,140.000,44.998,34131.49545,1.93087,405.760,32.051,45.068,44.999,0.00,0.09,-272.71,-272.76,-4,978,-2,21.9,5.9,-17.5,21.6,6.2,-17.2,5.73,1.96,-11.2,25.6
2015-03-20 01:09:00,0.0,1.92626,0.00039,404.659,0.055,0.2112,0.0016,140.002,44.997,34131.34019,1.93033,405.694,31.861,45.067,44.999,0.00,0.09,-272.72,-272.76,-4,979,-2,21.8,5.9,-17.5,21.5,6.1,-17.3,5.73,1.97,-11.3,25.7
2015-03-20 01:10:00,0.0,1.92567,0.00037,404.543,0.030,0.2109,0.0022,140.001,44.997,34129.07185,1.92969,405.575,31.659,45.067,44.999,0.00,0.09,-272.71,-272.77,-4,979,-2,21.8,5.9,-17.5,21.5,6.2,-17.3,5.73,1.97,-11.3,25.8
2015-03-20 01:11:00,0.0,1.92552,0.00049,404.498,0.040,0.2119,0.0020,140.000,44.997,34122.95705,1.92958,405.534,31.477,45.067,44.999,0.00,0.09,-272.70,-272.77,-4,979,-2,21.7,6.0,-17.4,21.5,6.2,-17.2,5.73,1.95,-11.4,25.7
2015-03-20 01:12:00,0.0,1.92513,0.00034,404.504,0.036,0.2145,0.0021,139.998,44.997,34117.50496,1.92923,405.553,31.331,45.067,44.999,0.00,0.09,-272.71,-272.76,-4,979,-2,21.7,6.1,-17.3,21.4,6.3,-17.1,5.73,1.92,-11.5,25.6
2015-03-20 01:13:00,0.0,1.92513,0.00023,404.468,0.035,0.2188,0.0017,139.999,44.997,34113.33642,1.92928,405.537,31.233,45.068,45.000,0.00,0.09,-272.72,-272.77,-4,979,-2,21.6,6.2,-17.1,21.4,6.4,-17.0,5.73,1.91,-11.6,25.5
2015-03-20 01:14:00,0.0,1.92494,0.00029,404.436,0.041,0.2240,0.0022,139.999,44.998,34108.96284,1.92920,405.532,31.183,45.068,45.000,0.00,0.09,-272.70,-272.76,-4,979,-2,21.6,6.4,-16.8,21.3,6.5,-16.7,5.73,1.92,-11.6,25.5
2015-03-20 01:15:00,0.0,1.92468,0.00035,404.407,0.035,0.2312,0.0032,140.002,44.999,34109.51140,1.92910,405.538,31.130,45.069,45.001,0.00,0.09,-272.70,-272.76,-4,978,-2,21.5,6.6,-16.4,21.3,6.7,-16.4,5.73,1.92,-11.6,25.4
2015-03-20 01:16:00,0.0,1.92478,0.00030,404.370,0.029,0.2362,0.0013,139.996,44.999,34103.32548,1.92927,405.525,31.125,45.069,45.001,0.00,0.09,-272.71,-272.77,-4,978,-2,21.4,6.8,-16.2,21.2,6.9,-16.1,5.73,1.93,-11.7,25.4
2015-03-20 01:17:00,0.0,1.92432,0.00033,404.358,0.028,0.2397,0.0021,139.999,44.999,34103.10182,1.92891,405.529,31.124,45.069,45.001,0.00,0.09,-272.71,-272.77,-4,977,-2,21.3,6.9,-16.0,21.1,7.1,-15.9,5.73,1.93,-11.7,25.3
2015-03-20 01:18:00,0.0,1.92447,0.00033,404.343,0.028,0.2433,0.0018,140.001,45.000,34099.80166,1.92912,405.534,31.071,45.069,45.000,0.00,0.09,-272.70,-272.76,-4,977,-2,21.2,7.1,-15.9,21.0,7.2,-15.7,5.73,1.93,-11.7,25.3
2015-03-20 01:19:00,0.0,1.92420,0.00039,404.361,0.029,0.2452,0.0016,139.999,44.999,34096.93632,1.92886,405.560,31.017,45.069,45.000,0.00,0.09,-272.71,-272.77,-3,977,-2,21.2,7.2,-15.7,21.0,7.3,-15.6,5.73,1.94,-11.8,25.2
2015-03-20 01:20:00,0.0,1.92410,0.00037,404.348,0.021,0.2476,0.0025,140.003,44.999,34099.01038,1.92881,405.560,30.963,45.068,45.000,0.00,0.09,-272.72,-272.77,-3,976,-2,21.1,7.3,-15.6,20.9,7.4,-15.5,5.73,1.94,-11.8,25.2
2015-03-20 01:21:00,0.0,1.92390,0.00032,404.324,0.032,0.2502,0.0020,139.997,44.999,34095.59501,1.92868,405.547,30.903,45.068,45.000,0.00,0.09,-272.71,-272.76,-3,976,-2,21.0,7.4,-15.4,20.9,7.5,-15.4,5.73,1.94,-11.9,25.1
2015-03-20 01:22:00,0.0,1.92404,0.00035,404.346,0.035,0.2480,0.0023,139.999,44.999,34092.83338,1.92873,405.562,30.848,45.069,45.000,0.00,0.09,-272.71,-272.77,-3,976,-2,21.0,7.4,-15.5,20.9,7.5,-15.4,5.73,1.94,-11.9,25.0
2015-03-20 01:23:00,0.0,1.92410,0.00033,404.380,0.035,0.2453,0.0019,139.996,44.999,34090.80153,1.92880,405.580,30.803,45.069,45.000,0.00,0.09,-272.72,-272.77,-3,976,-2,20.9,7.3,-15.7,20.8,7.5,-15.5,5.73,1.94,-12.0,24.9
2015-03-20 01:24:00,0.0,1.92418,0.00021,404.351,0.037,0.2434,0.0015,140.000,44.999,34088.81626,1.92882,405.543,30.738,45.069,45.000,0.00,0.09,-272.70,-272.76,-3,975,-1,20.9,7.3,-15.8,20.8,7.4,-15.6,5.73,1.94,-12.0,24.8
2015-03-20 01:25:00,0.0,1.92410,0.00042,404.378,0.037,0.2424,0.0019,140.003,44.999,34087.50799,1.92874,405.564,30.681,45.069,45.000,0.00,0.09,-272.71,-272.76,-3,975,-1,20.8,7.3,-15.8,20.7,7.4,-15.7,5.73,1.94,-12.1,24.7
2015-03-20 01:26:00,0.0,1.92401,0.00029,404.387,0.027,0.2433,0.0018,139.998,44.999,34083.17723,1.92862,405.578,30.616,45.068,45.000,0.00,0.09,-272.71,-272.77,-2,975,-1,20.8,7.3,-15.8,20.7,7.4,-15.7,5.73,1.94,-12.1,24.6
2015-03-20 01:27:00,0.0,1.92423,0.00038,404.348,0.045,0.2430,0.0016,139.999,44.999,34081.18231,1.92889,405.538,30.547,45.069,45.000,0.00,0.09,-272.71,-272.77,-3,975,-1,20.7,7.3,-15.8,20.6,7.4,-15.7,5.73,1.94,-12.2,24.6
2015-03-20 01:28:00,0.0,1.92425,0.00042,404.334,0.039,0.2438,0.0018,139.998,44.999,34078.34289,1.92886,405.524,30.490,45.069,45.000,0.00,0.09,-272.70,-272.77,-3,974,-1,20.7,7.4,-15.7,20.6,7.5,-15.6,5.73,1.94,-12.2,24.5
2015-03-20 01:29:00,0.0,1.92437,0.00036,404.366,0.022,0.2440,0.0017,140.000,44.999,34075.09809,1.92902,405.559,30.434,45.069,45.000,0.00,0.09,-272.71,-272.77,-3,974,-1,20.6,7.4,-15.8,20.5,7.5,-15.6,5.73,1.96,-12.3,24.5
2015-03-20 01:30:00,0.0,1.92429,0.00041,404.374,0.027,0.2418,0.0013,139.999,44.999,34072.56993,1.92889,405.558,30.383,45.069,45.000,0.00,0.09,-272.72,-272.78,-2,974,-1,20.5,7.4,-15.8,20.5,7.5,-15.7,5.73,1.94,-12.4,24.4
2015-03-20 01:31:00,0.0,1.92439,0.00045,404.384,0.040,0.2413,0.0017,139.999,44.999,34068.14894,1.92899,405.564,30.323,45.069,45.000,0.00,0.09,-272.70,-272.77,-2,974,-1,20.5,7.4,-15.9,20.4,7.5,-15.8,5.73,1.95,-12.4,24.4
2015-03-20 01:32:00,0.0,1.92442,0.00037,404.391,0.025,0.2406,0.0018,139.999,44.999,34063.81690,1.92901,405.569,30.266,45.069,45.000,0.00,0.09,-272.71,-272.77,-3,974,-1,20.4,7.4,-15.9,20.3,7.5,-15.8,5.73,1.95,-12.5,24.3
2015-03-20 01:33:00,0.0,1.92458,0.00031,404.396,0.026,0.2401,0.0017,140.001,44.999,34061.20540,1.92917,405.571,30.233,45.069,45.001,0.00,0.09,-272.71,-272.78,-2,973,-1,20.4,7.4,-15.9,20.3,7.5,-15.8,5.73,1.95,-12.5,24.2
2015-03-20 01:34:00,0.0,1.92462,0.00040,404.424,0.038,0.2410,0.0016,139.998,44.999,34056.43374,1.92917,405.602,30.187,45.069,45.000,0.00,0.09,-272.72,-272.77,-2,973,-1,20.3,7.4,-15.9,20.2,7.5,-15.8,5.73,1.95,-12.5,24.2
2015-03-20 01:35:00,0.0,1.92453,0.00032,404.378,0.035,0.2430,0.0019,140.001,44.999,34054.33842,1.92920,405.568,30.186,45.069,45.000,0.00,0.09,-272.71,-272.77,-2,973,-1,20.2,7.5,-15.9,20.2,7.6,-15.7,5.73,1.95,-12.6,24.0
2015-03-20 01:36:00,0.0,1.92488,0.00027,404.409,0.035,0.2446,0.0018,140.000,44.999,34050.46970,1.92950,405.606,30.185,45.069,45.000,0.00,0.09,-272.72,-272.77,-2,972,-1,20.2,7.6,-15.8,20.2,7.7,-15.6,5.73,1.95,-12.6,24.0
2015-03-20 01:37:00,0.0,1.92491,0.00055,404.441,0.065,0.2456,0.0013,139.999,45.000,34045.39397,1.92962,405.643,30.213,45.069,45.000,0.00,0.09,-272.72,-272.77,-2,972,-1,20.2,7.7,-15.7,20.1,7.7,-15.6,5.73,1.96,-12.6,24.1
2015-03-20 01:38:00,0.0,1.92456,0.00031,404.386,0.030,0.2477,0.0014,140.001,45.000,34044.73731,1.92926,405.598,30.250,45.069,45.000,0.00,0.09,-272.71,-272.76,-2,972,-1,20.2,7.7,-15.6,20.1,7.8,-15.5,5.73,1.96,-12.6,24.1
2015-03-20 01:39:00,0.0,1.92450,0.00048,404.351,0.055,0.2503,0.0016,140.003,45.000,34043.93836,1.92925,405.574,30.284,45.069,45.000,0.00,0.09,-272.71,-272.77,-2,972,-0,20.1,7.8,-15.4,20.1,7.9,-15.4,5.73,1.97,-12.6,24.1
2015-03-20 01:40:00,0.0,1.92453,0.00031,404.375,0.057,0.2547,0.0023,139.999,45.000,34041.94478,1.92944,405.626,30.357,45.069,45.000,0.00,0.09,-272.71,-272.76,-2,971,-0,20.1,8.0,-15.2,20.1,8.0,-15.2,5.73,1.98,-12.6,24.1
2015-03-20 01:41:00,0.0,1.92408,0.00020,404.264,0.018,0.2594,0.0022,140.000,45.000,34040.47033,1.92902,405.533,30.417,45.069,45.000,0.00,0.09,-272.71,-272.76,-2,971,-0,20.1,8.1,-15.0,20.1,8.2,-15.0,5.73,1.98,-12.6,24.1
2015-03-20 01:42:00,0.0,1.92444,0.00039,404.248,0.032,0.2636,0.0022,140.002,45.000,34036.64899,1.92945,405.537,30.483,45.068,45.000,0.00,0.09,-272.71,-272.77,-1,970,-0,20.1,8.2,-14.9,20.0,8.3,-14.8,5.73,1.98,-12.6,24.1
2015-03-20 01:43:00,0.0,1.92413,0.00036,404.259,0.033,0.2654,0.0016,139.996,45.001,34037.00726,1.92919,405.561,30.557,45.068,44.999,0.00,0.09,-272.71,-272.77,-2,971,-0,20.1,8.3,-14.8,20.0,8.4,-14.7,5.73,1.96,-12.6,24.1
2015-03-20 01:44:00,0.0,1.92426,0.00033,404.259,0.035,0.2663,0.0014,140.002,45.000,34037.77044,1.92933,405.561,30.625,45.068,44.999,0.00,0.09,-272.71,-272.77,-1,971,-0,20.1,8.3,-14.7,20.0,8.5,-14.6,5.73,1.94,-12.6,24.1
2015-03-20 01:45:00,0.0,1.92386,0.00038,404.229,0.026,0.2679,0.0019,139.998,45.001,34037.09685,1.92901,405.542,30.700,45.068,44.999,0.00,0.09,-272.71,-272.77,-1,969,-0,20.1,8.4,-14.6,20.0,8.5,-14.5,5.73,1.92,-12.6,24.2
2015-03-20 01:46:00,0.0,1.92395,0.00026,404.218,0.034,0.2683,0.0016,140.005,45.001,34038.77361,1.92906,405.531,30.752,45.068,44.999,0.00,0.09,-272.71,-272.77,-1,969,-0,20.1,8.4,-14.6,20.0,8.5,-14.5,5.73,1.93,-12.6,24.2